Hourly Data Report for January 17, 2022

TRENTON A
ONTARIO
Current Station Operator: DND

44°07'08.000" N
77°31'41.000" W
86.30 m
6158875
71621
YTR

Download Data

Hourly Data (January 2022)
Hourly Data Report for January 17, 2022
TIME
LST
Temp Definition
°C
Dew Point Definition
°C
Rel Hum Definition
%
Precip. Amount Definition
mm

Wind Dir Definition
10's deg

Wind Spd Definition
km/h
Visibility Definition
km
Stn Press Definition
kPa
Hmdx Definition


Wind Chill Definition


Weather Definition


00:00 -4.3 -5.0 94   8 11 2.4 99.78   -9 Snow
01:00 -4.3 -5.1 93   6 11 2.4 99.58   -9 Snow
02:00 -6.2 -7.4 90   5 24 1.6 99.40   -14 Snow
03:00 -7.0 -8.1 91   5 17 1.0 99.16   -13 Snow
04:00 -6.7 -7.8 91   4 26 0.8 98.81   -15 Moderate Snow
05:00 -6.3 -7.3 92   3 30 0.8 98.50   -15 Moderate Snow
06:00 -7.0 -8.0 92   3 30 0.6 98.39   -16 Moderate Snow,Blowing Snow
07:00 -7.5 -8.5 92   3 34 0.4 98.17   -17 Heavy Snow,Blowing Snow
08:00 -6.7 -7.7 92   4 30 0.4 98.03   -15 Heavy Snow,Blowing Snow
09:00 -7.4 -8.7 89   4 34 0.4 98.00   -17 Heavy Snow,Blowing Snow
10:00 -7.6 -8.8 90   3 24 0.4 97.93   -16 Heavy Snow,Blowing Snow
11:00 -6.8 -8.2 89   5 26 0.8 97.75   -15 Moderate Snow,Blowing Snow
12:00 -5.2 -7.2 84   36 21 2.4 97.68   -12 Snow
13:00 -4.9 -7.3 81   1 17 2.4 97.60   -11 Snow
14:00 -4.3 -7.4 77   34 24 24.1 97.66   -11 Snow Showers
15:00 -5.3 -9.2 71   33 22 16.1 97.83   -12 Snow Showers
16:00 -5.3 -7.5 83   32 17 6.4 97.94   -11 Snow Showers
17:00 -5.2 -7.2 84   30 13 2.4 98.01   -10 Snow Showers
18:00 -5.1 -7.2 83   31 21 4.8 98.19   -12 Snow Showers
19:00 -5.0 -8.5 74   31 31 16.1 98.36   -13 LegendNANA
20:00 -5.4 -10.3 65   32 28 19.3 98.55   -13 LegendNANA
21:00 -6.3 -13.5 53   32 21 24.1 98.74   -13 LegendNANA
22:00 -7.3 -12.0 66   30 15 24.1 98.95   -13 LegendNANA
23:00 -7.4 -11.4 70   31 22 24.1 99.07   -15 LegendNANA

Notes on Data Quality.

Legend

  • E = Estimated
  • M = Missing
  • NA = Not Available*
  • [empty] = Indicates an unobserved value
Date modified: